Location: Stillwell
(40.4602°N, 82.0928°W)
Time: 16:50:27
(UTC-04:00)

Daily predictions for brighter satellites

Satellite Brightness Start Highest point End
(mag) Time Altitude Azimuth Time Altitude Azimuth Time Altitude Azimuth
Milstar 3 Cent rocket 4.0 21:19:09 10° WSW 21:24:53 34° S 21:35:05 10° ESE
H-2A R/B 4.0 21:31:18 10° E 21:34:31 16° ENE 21:37:46 10° NNE
Cosmos 1340 Rocket 2.8 21:34:17 10° S 21:38:14 64° E 21:42:17 10° NNE
Cosmos 1184 Rocket 2.8 21:35:13 10° S 21:38:33 74° E 21:41:56 10° NNE
Cosmos 1818 4.0 21:34:31 10° NNW 21:39:51 52° NE 21:45:08 10° SE
Cosmos 1741 Rocket 4.2 21:36:03 10° S 21:41:12 53° ESE 21:46:22 10° NNE
Cosmos 2237 Rocket 2.9 21:36:28 10° NNW 21:41:57 55° WSW 21:47:24 10° S
NOSS 3-4 (A) 4.0 21:35:16 10° NW 21:42:22 81° WSW 21:49:55 10° SSE
NOSS 3-4 (C) 4.0 21:35:21 10° NW 21:42:27 82° WSW 21:50:01 10° SSE
USA 186 3.9 21:46:12 10° SW 21:47:49 16° W 21:49:24 10° NW
Resurs 01 Rocket 3.9 21:49:13 10° SSW 21:52:46 24° W 21:56:19 10° NW
Cosmos 2227 Rocket 3.7 21:50:56 10° SW 21:56:15 41° WNW 22:01:36 10° N
Cosmos 1674 2.9 21:56:26 10° S 22:00:05 51° E 22:03:45 10° NNE
Atlas Centaur 2 3.0 21:59:52 10° SW 22:01:57 15° S 22:03:34 12° SSE
H-2A ROCKET BODY 3.7 22:00:26 10° SSE 22:02:34 13° SE 22:05:51 10° ESE
Cosmos 1459 Rocket 4.2 21:56:28 10° N 22:02:41 57° E 22:08:40 10° SSE
Helios 1B rocket 3.1 21:58:51 10° N 22:02:56 58° WNW 22:07:00 10° SSW
Cosmos 2084 3.1 21:59:10 10° SSW 22:03:12 81° SE 22:07:04 10° NE
Cosmos 1908 3.4 22:00:58 10° N 22:04:48 58° E 22:08:10 13° SSE
Cosmos 2100 Rocket 4.1 21:59:17 10° N 22:05:36 66° E 22:11:54 10° SSE
ARGOS 3.7 22:01:30 12° SE 22:06:16 46° ENE 22:11:25 10° N
SL-16 R/B 2.3 22:00:34 10° NNW 22:06:16 84° WSW 22:11:44 11° SSE
MetOp-A 4.3 22:01:21 11° SSE 22:06:26 59° ENE 22:11:43 10° N
Helios 1A 4.0 22:03:41 10° S 22:07:38 44° W 22:11:37 10° NNW
Cosmos 2061 Rocket 4.2 22:03:14 10° N 22:09:34 59° E 22:15:28 12° SSE
Meteor 1-29 4.0 22:08:30 10° N 22:11:50 48° WNW 22:15:09 10° SSW
SAR-Lupe-4 4.4 22:08:40 10° S 22:12:08 49° W 22:15:38 10° NNW
Envisat 4.4 22:08:09 10° SSW 22:12:46 35° W 22:17:25 10° NNW
KORONAS-FOTON 4.0 22:10:27 11° SSE 22:13:56 49° E 22:17:38 10° NNE
Cosmos 2173 Rocket 4.0 22:10:57 10° N 22:17:07 74° E 22:23:00 12° SSE
Cosmos 2208 Rocket 4.1 22:11:59 10° NNW 22:17:20 87° ENE 22:21:57 14° SSE
SPOT 1/Viking Rocket 4.0 22:25:32 18° SE 22:29:03 48° ENE 22:33:59 10° N
Cosmos 1570 Rocket 4.3 22:25:16 10° NNW 22:30:32 65° WSW 22:34:58 14° S
Cosmos 1242 Rocket 2.9 22:28:23 10° NNW 22:32:05 67° W 22:34:53 17° S
Cosmos 1356 Rocket 3.9 22:30:31 10° SSW 22:34:43 65° W 22:39:00 10° N
NOAA 11 4.4 22:31:28 12° S 22:36:27 68° WSW 22:41:53 10° NNW
Cosmos 1802 Rocket 4.0 22:32:37 10° N 22:38:47 88° W 22:43:59 15° S
Cosmos 1725 Rocket 4.2 22:33:26 10° N 22:39:35 55° E 22:43:35 22° SSE
Cosmos 2227 4.2 22:35:05 10° SSW 22:40:49 83° ESE 22:46:33 10° NNE
SPOT 5 2.9 22:37:41 20° SSE 22:41:03 86° ENE 22:46:10 10° NNW
Cosmos 2058 4.3 22:41:53 21° ESE 22:42:45 23° E 22:46:04 10° NE
Cosmos 371 Rocket 3.8 22:38:39 10° N 22:43:17 46° ENE 22:45:45 25° SE
Cosmos 1408 Rocket 3.5 22:39:20 12° S 22:43:20 81° W 22:47:41 10° N
Lacrosse 5 2.2 22:38:35 10° NW 22:43:36 60° NE 22:46:42 23° ESE
Cosmos 1076 Rocket 4.5 22:40:10 10° SSW 22:44:23 48° W 22:48:37 10° N
Cosmos 1867 4.3 22:41:42 10° SW 22:47:02 55° NW 22:52:25 10° NNE
Tiangong 1 1.6 22:51:07 10° WNW 22:53:51 48° N 22:55:09 25° ENE
Abrixas rocket 3.5 22:52:04 10° NW 22:55:05 34° NNE 22:56:48 20° ENE
RESURS DK-1 2.3 22:52:13 10° NNW 22:56:25 83° ENE 22:58:06 35° SSE
USA 234 3.3 22:53:43 10° NE 23:00:17 87° NW 23:06:50 10° SW
Cosmos 468 Rocket 4.0 22:56:01 10° NNW 23:01:10 78° WSW 23:03:52 28° S
EO 1 Delta rocket 3.8 22:59:49 26° S 23:02:30 85° W 23:07:08 10° N
Cosmos 1864 Rocket 4.5 22:56:24 10° N 23:02:48 83° E 23:06:43 25° S
Cosmos 1500 Rocket 3.7 23:01:39 34° SSE 23:03:23 57° E 23:07:46 10° NNE
Cosmos 2151 3.3 23:02:31 36° SE 23:03:42 46° E 23:07:51 10° NNE
Meteor 2-2 Rocket 4.3 22:57:59 10° N 23:03:48 86° W 23:07:23 25° S
SL-14 R/B 3.2 23:02:08 28° S 23:04:09 86° W 23:08:07 10° N
Cosmos 1626 3.0 23:05:11 31° E 23:05:16 31° E 23:08:35 10° NNE
Landsat 7 3.8 23:04:12 33° SSE 23:06:20 74° ENE 23:11:06 10° N
Cosmos 2263 Rocket 2.4 23:04:26 29° SSE 23:06:52 46° ESE 23:12:11 10° NE
Cosmos 2016 Rocket 4.3 23:01:46 10° NNW 23:07:56 62° W 23:12:33 18° SSW
Cosmos 1300 2.7 23:05:08 10° N 23:08:58 75° W 23:10:18 38° S
Meteor 2-10 4.2 23:03:22 10° N 23:09:00 89° E 23:12:05 29° S
Cosmos 1726 2.8 23:07:43 10° NNW 23:11:17 49° W 23:12:45 30° SSW
Cosmos 1328 4.0 23:09:20 27° SSW 23:11:25 72° W 23:15:28 10° N
H-2A R/B 2.3 23:10:15 26° S 23:13:16 70° WSW 23:18:41 10° NNW
CARTOSAT-1 3.7 23:12:29 40° SE 23:13:48 60° ENE 23:18:04 10° N
ATLAS 5 CENTAUR R/B 4.3 23:10:12 10° W 23:14:05 24° NW 23:18:16 10° NNE
Terra 1.8 23:19:38 40° SSE 23:21:17 73° ENE 23:26:02 10° N
CZ-4 R/B 4.2 23:17:38 10° NNE 23:22:17 44° E 23:23:08 40° SE
Cosmos 1328 Rocket 4.2 23:22:57 10° NNW 23:27:09 49° W 23:28:53 30° SSW
CZ-4B R/B 3.9 23:26:15 10° NNE 23:31:19 45° E 23:32:19 40° SE
Cosmos 1515 Rocket 3.8 23:27:40 10° NNW 23:31:57 62° W 23:33:17 40° SSW
SL-19 R/B 4.1 23:26:42 10° NNE 23:32:03 71° ESE 23:34:17 37° S
Cosmos 2233 Rocket 3.9 23:26:40 10° N 23:32:54 89° ENE 23:35:40 36° S
Cosmos 1603 4.4 23:27:59 10° NW 23:33:21 45° WSW 23:35:50 28° SSW
Cosmos 540 Rocket 4.2 23:29:43 10° N 23:34:37 41° ENE 23:36:05 33° ESE
H-2A R/B 2.0 23:34:10 55° SSE 23:35:03 79° ENE 23:39:20 10° N
Cosmos 2228 Rocket 3.9 23:30:45 10° NNW 23:35:09 46° W 23:37:01 29° SW
Cosmos 1151 Rocket 3.1 23:32:14 10° NNW 23:36:38 73° W 23:37:42 49° SSW
Cosmos 1844 Rocket 4.3 23:41:56 18° E 23:41:56 18° E 23:45:01 10° ENE
Delta 2 Rocket 4.3 23:36:25 10° WSW 23:41:55 45° SSE 23:41:58 45° SSE
IGS 5A 3.6 23:41:12 54° SSW 23:41:58 68° W 23:46:08 10° NNW
Cosmos 1455 2.4 23:38:53 10° N 23:42:40 55° ENE 23:42:40 55° ENE
Cosmos 1356 4.1 23:44:50 46° WSW 23:45:16 49° WNW 23:48:42 10° N
Cosmos 304 Rocket 3.9 23:42:15 10° NNW 23:47:01 61° ENE 23:47:54 51° ESE
ERBS 2.9 23:44:24 10° NW 23:47:11 53° WNW 23:47:11 53° WNW
Spot 4 3.9 23:47:15 52° SE 23:48:18 70° ENE 23:53:09 10° N
Cosmos 1943 3.3 23:44:00 10° NNW 23:49:38 68° WSW 23:51:21 44° S
CZ-4C R/B 3.8 23:49:57 49° E 23:50:19 51° ENE 23:54:35 10° N
Cosmos 1354 Rocket 3.9 23:51:22 44° SSW 23:53:06 88° E 23:58:21 10° NNE
